Location: ČR
(50.0000°N, 15.0000°E)
Time: 21:41:16
(UTC+00:00)

Tianhe-1 - Visible Passes

Search period start: 24 June 2021 00:00
Search period end: 04 July 2021 00:00
Orbit: 375 x 385 km, 41.5° (Epoch: 24 June)

Date Brightness Start Highest point End Pass type
(mag) Time Alt. Az. Time Alt. Az. Time Alt. Az.
24 Jun 3.0 02:00:36 10° SSW 02:02:38 16° S 02:04:39 10° SE visible
25 Jun 3.2 01:01:55 13° SSE 01:01:55 13° SSE 01:03:25 10° SE visible
26 Jun 2.8 01:35:39 14° SSW 01:37:00 17° S 01:39:10 10° SE visible
27 Jun 3.3 00:37:18 13° SE 00:37:18 13° SE 00:38:05 10° SE visible
28 Jun 2.7 01:11:11 17° S 01:11:17 17° S 01:13:28 10° SE visible
29 Jun 2.9 01:45:17 12° SW 01:46:24 14° SSW 01:48:10 10° SSE visible
03 Jul 3.4 20:40:09 10° S 20:40:09 10° S 20:40:09 10° S visible
